When you browse on this site, cookies collect data to enhance your experience and personalize the content and advertising you see.
Visit our Privacy Policy to learn more. By continuing to use the site, you agree to this use of cookies and data.
  • In France
  • List of Countries
  • For 7 days
  • Water Temperature
  • Satellite Maps
  • Weather Map
  • Weather Widgets
  • user-avatar
    Login

    Hourly Weather Banska Bystrica

    Today, 16 June, Sunday

    Time Temperature Precipitation Wind Pressure Humidity
    00:00 +21°C° 0 mm 1 mps 710 mmHg 92%
    01:00 +21°C° 0 mm 1 mps 710 mmHg 92%
    02:00 +20°C° 0.1 mm 1 mps 710 mmHg 92%
    03:00 +18°C° 0.1 mm 0 mps 709 mmHg 92%
    04:00 +18°C° 0.1 mm 0 mps 709 mmHg 92%
    05:00 +19°C° 0.1 mm 0 mps 710 mmHg 88%
    06:00 +21°C° 0.1 mm 0 mps 710 mmHg 84%
    07:00 +23°C° 0.1 mm 0 mps 711 mmHg 80%
    08:00 +25°C° 0.3 mm 0 mps 711 mmHg 70%
    09:00 +29°C° 0.3 mm 1 mps 711 mmHg 59%
    10:00 +30°C° 0.3 mm 1 mps 712 mmHg 49%
    11:00 +30°C° 0.2 mm 1 mps 712 mmHg 50%
    12:00 +30°C° 0.2 mm 1 mps 712 mmHg 51%
    13:00 +29°C° 0.2 mm 2 mps 712 mmHg 52%
    14:00 +28°C° 1.5 mm 2 mps 712 mmHg 61%
    15:00 +26°C° 1.5 mm 2 mps 711 mmHg 70%
    16:00 +25°C° 1.5 mm 2 mps 711 mmHg 79%
    17:00 +23°C° 0.7 mm 2 mps 711 mmHg 83%
    18:00 +20°C° 0.7 mm 2 mps 711 mmHg 87%
    19:00 +19°C° 0.7 mm 2 mps 711 mmHg 91%
    20:00 +18°C° 0.1 mm 2 mps 711 mmHg 92%
    21:00 +17°C° 0.1 mm 2 mps 711 mmHg 92%
    22:00 +16°C° 0.1 mm 2 mps 711 mmHg 93%
    23:00 +15°C° 0 mm 2 mps 711 mmHg 93%

    Tomorrow, 17 June, Monday

    Time Temperature Precipitation Wind Pressure Humidity
    00:00 +15°C° 0 mm 2 mps 712 mmHg 94%
    01:00 +15°C° 0 mm 2 mps 712 mmHg 94%
    02:00 +15°C° 0 mm 2 mps 712 mmHg 95%
    03:00 +15°C° 0 mm 2 mps 712 mmHg 96%
    04:00 +15°C° 0 mm 2 mps 712 mmHg 96%
    05:00 +17°C° 0 mm 2 mps 712 mmHg 92%
    06:00 +18°C° 0 mm 2 mps 713 mmHg 88%
    07:00 +20°C° 0 mm 2 mps 713 mmHg 84%
    08:00 +21°C° 0 mm 2 mps 714 mmHg 74%
    09:00 +24°C° 0 mm 2 mps 714 mmHg 65%
    10:00 +26°C° 0 mm 2 mps 714 mmHg 56%
    11:00 +26°C° 0.5 mm 2 mps 714 mmHg 57%
    12:00 +26°C° 0.5 mm 1 mps 714 mmHg 58%
    13:00 +27°C° 0.5 mm 1 mps 714 mmHg 59%
    14:00 +26°C° 0.7 mm 1 mps 713 mmHg 66%
    15:00 +25°C° 0.7 mm 1 mps 713 mmHg 72%
    16:00 +23°C° 0.7 mm 1 mps 712 mmHg 79%
    17:00 +22°C° 0.1 mm 1 mps 712 mmHg 80%
    18:00 +21°C° 0.1 mm 1 mps 712 mmHg 82%
    19:00 +20°C° 0.1 mm 1 mps 712 mmHg 83%
    20:00 +19°C° 0 mm 1 mps 712 mmHg 84%
    21:00 +17°C° 0 mm 2 mps 712 mmHg 86%
    22:00 +15°C° 0 mm 2 mps 712 mmHg 87%
    23:00 +15°C° 0 mm 2 mps 712 mmHg 88%

    Day after tomorrow, 18 June, Tuesday

    Time Temperature Precipitation Wind Pressure Humidity
    00:00 +15°C° 0 mm 2 mps 712 mmHg 88%
    01:00 +14°C° 0 mm 1 mps 711 mmHg 89%
    02:00 +14°C° 0 mm 1 mps 711 mmHg 89%
    03:00 +14°C° 0 mm 1 mps 711 mmHg 89%
    04:00 +14°C° 0 mm 1 mps 711 mmHg 89%
    05:00 +16°C° 0 mm 1 mps 712 mmHg 82%
    06:00 +20°C° 0 mm 1 mps 712 mmHg 76%
    07:00 +22°C° 0 mm 1 mps 713 mmHg 70%
    08:00 +23°C° 0 mm 1 mps 713 mmHg 67%
    09:00 +24°C° 0 mm 1 mps 713 mmHg 64%
    10:00 +25°C° 0 mm 1 mps 713 mmHg 61%
    11:00 +25°C° 0.5 mm 1 mps 712 mmHg 67%
    12:00 +25°C° 0.5 mm 1 mps 712 mmHg 72%
    13:00 +22°C° 0.5 mm 0 mps 712 mmHg 77%
    14:00 +22°C° 0.9 mm 0 mps 711 mmHg 76%
    15:00 +23°C° 0.9 mm 0 mps 711 mmHg 75%
    16:00 +23°C° 0.9 mm 0 mps 711 mmHg 75%
    17:00 +22°C° 0.4 mm 0 mps 711 mmHg 79%
    18:00 +21°C° 0.4 mm 0 mps 710 mmHg 84%
    19:00 +20°C° 0.4 mm 0 mps 710 mmHg 89%
    20:00 +21°C° 0.7 mm 1 mps 710 mmHg 90%
    21:00 +20°C° 0.7 mm 1 mps 710 mmHg 92%
    22:00 +19°C° 0.7 mm 1 mps 710 mmHg 93%
    23:00 +19°C° 0 mm 1 mps 710 mmHg 93%

    19 June, Wednesday

    Time Temperature Precipitation Wind Pressure Humidity
    00:00 +19°C° 0 mm 1 mps 710 mmHg 93%
    01:00 +18°C° 0 mm 1 mps 710 mmHg 93%
    02:00 +18°C° 0.2 mm 1 mps 710 mmHg 93%
    03:00 +18°C° 0.2 mm 1 mps 710 mmHg 93%
    04:00 +18°C° 0.2 mm 1 mps 710 mmHg 93%
    05:00 +19°C° 0.3 mm 1 mps 710 mmHg 92%
    06:00 +20°C° 0.3 mm 1 mps 710 mmHg 90%
    07:00 +22°C° 0.3 mm 1 mps 710 mmHg 89%
    08:00 +23°C° 1.2 mm 1 mps 710 mmHg 85%
    09:00 +24°C° 1.2 mm 1 mps 711 mmHg 81%
    10:00 +25°C° 1.2 mm 1 mps 711 mmHg 78%
    11:00 +25°C° 2.2 mm 1 mps 710 mmHg 78%
    12:00 +25°C° 2.2 mm 1 mps 710 mmHg 78%
    13:00 +26°C° 2.2 mm 1 mps 710 mmHg 78%
    14:00 +25°C° 1.7 mm 1 mps 710 mmHg 80%
    15:00 +25°C° 1.7 mm 1 mps 709 mmHg 82%
    16:00 +23°C° 1.7 mm 0 mps 709 mmHg 83%
    17:00 +22°C° 0.7 mm 0 mps 709 mmHg 85%
    18:00 +21°C° 0.7 mm 0 mps 709 mmHg 87%
    19:00 +20°C° 0.7 mm 0 mps 709 mmHg 88%
    20:00 +21°C° 0.5 mm 1 mps 709 mmHg 89%
    21:00 +20°C° 0.5 mm 1 mps 709 mmHg 91%
    22:00 +20°C° 0.5 mm 1 mps 709 mmHg 92%
    23:00 +19°C° 0.5 mm 1 mps 709 mmHg 93%

    20 June, Thursday

    Time Temperature Precipitation Wind Pressure Humidity
    00:00 +19°C° 0.5 mm 1 mps 708 mmHg 93%
    01:00 +19°C° 0.5 mm 1 mps 708 mmHg 94%
    02:00 +19°C° 0.6 mm 1 mps 708 mmHg 95%
    03:00 +19°C° 0.6 mm 1 mps 708 mmHg 95%
    04:00 +18°C° 0.6 mm 1 mps 708 mmHg 95%
    05:00 +19°C° 1.1 mm 1 mps 709 mmHg 95%
    06:00 +20°C° 1.1 mm 1 mps 709 mmHg 95%
    07:00 +21°C° 1.1 mm 1 mps 709 mmHg 94%
    08:00 +22°C° 1.8 mm 1 mps 709 mmHg 92%
    09:00 +23°C° 1.8 mm 1 mps 710 mmHg 89%
    10:00 +24°C° 1.8 mm 1 mps 710 mmHg 87%
    11:00 +23°C° 2.2 mm 1 mps 710 mmHg 88%
    12:00 +23°C° 2.2 mm 1 mps 709 mmHg 89%
    13:00 +23°C° 2.2 mm 1 mps 709 mmHg 90%
    14:00 +23°C° 1.2 mm 1 mps 710 mmHg 89%
    15:00 +23°C° 1.2 mm 1 mps 710 mmHg 89%
    16:00 +23°C° 1.2 mm 1 mps 710 mmHg 88%
    17:00 +20°C° 0.2 mm 0 mps 710 mmHg 89%
    18:00 +20°C° 0.2 mm 0 mps 710 mmHg 90%
    19:00 +19°C° 0.2 mm 0 mps 709 mmHg 92%
    20:00 +18°C° 0.1 mm 0 mps 710 mmHg 92%
    21:00 +19°C° 0.1 mm 1 mps 710 mmHg 93%
    22:00 +18°C° 0.1 mm 1 mps 710 mmHg 93%
    23:00 +18°C° 0 mm 1 mps 710 mmHg 93%

    21 June, Friday

    Time Temperature Precipitation Wind Pressure Humidity
    00:00 +18°C° 0 mm 1 mps 710 mmHg 93%
    01:00 +16°C° 0 mm 1 mps 710 mmHg 93%
    02:00 +16°C° 0 mm 1 mps 710 mmHg 93%
    03:00 +16°C° 0 mm 1 mps 710 mmHg 93%
    04:00 +16°C° 0 mm 1 mps 710 mmHg 93%
    05:00 +19°C° 0 mm 1 mps 710 mmHg 89%
    06:00 +21°C° 0 mm 1 mps 711 mmHg 85%
    07:00 +21°C° 0 mm 0 mps 711 mmHg 81%
    08:00 +24°C° 0.4 mm 1 mps 711 mmHg 78%
    09:00 +25°C° 0.4 mm 1 mps 711 mmHg 74%
    10:00 +26°C° 0.4 mm 1 mps 711 mmHg 70%
    11:00 +26°C° 1.4 mm 1 mps 711 mmHg 72%
    12:00 +26°C° 1.4 mm 2 mps 711 mmHg 74%
    13:00 +26°C° 1.4 mm 2 mps 710 mmHg 77%
    14:00 +26°C° 1.4 mm 2 mps 710 mmHg 78%
    15:00 +26°C° 1.4 mm 1 mps 710 mmHg 79%
    16:00 +25°C° 1.4 mm 1 mps 710 mmHg 80%
    17:00 +24°C° 0.5 mm 1 mps 709 mmHg 84%
    18:00 +23°C° 0.5 mm 1 mps 709 mmHg 87%
    19:00 +20°C° 0.5 mm 0 mps 709 mmHg 91%
    20:00 +19°C° 0.3 mm 0 mps 709 mmHg 92%
    21:00 +21°C° 0.3 mm 1 mps 709 mmHg 93%
    22:00 +20°C° 0.3 mm 1 mps 709 mmHg 94%
    23:00 +19°C° 0 mm 1 mps 709 mmHg 94%
    Show more